#timestamp,LO_Frequency,Hit,StdDev 
1651996815.2,286046995.8,N
1651996835.1,286046994.1,N
1651996836.0,286046994.1,N
1651996855.8,286046997.9,N
1651996875.6,286046997.2,N
1651996895.5,286046997.5,N
1651996915.3,286046998.8,N
1651996935.2,286046998.3,N
1651996955.9,286046996.8,N
1651996975.7,286046998.0,N
1651996995.6,286046995.4,N
1651997015.4,286046999.1,N
1651997035.2,286046997.9,N
1651997055.1,286046997.2,N
1651997056.0,286046997.2,N
1651997075.8,286046995.3,N
1651997095.7,286046995.5,N
1651997115.5,286046995.3,N
1651997135.3,286046997.7,N
1651997155.2,286046997.6,N
1651997175.0,286046997.4,N
1651997175.9,286046997.4,N
1651997195.8,286046998.6,N
1651997215.6,286046999.1,N
1651997235.4,286046998.9,N
1651997255.3,286046996.6,N
1651997275.1,286046998.7,N
1651997295.8,286046998.0,N
1651997315.7,286046995.3,Y
1651997335.5,286047000.4,P
1651997355.4,286047000.2,N
1651997375.2,286047000.1,N
1651997395.0,286046998.1,N
1651997395.9,286046998.1,N
1651997415.8,286047001.0,N
1651997435.6,286047003.5,N
1651997455.4,286047003.4,N
1651997475.3,286047005.6,N
1651997495.1,286047007.1,N
1651997515.9,286047004.8,N
1651997535.7,286047005.8,N
1651997555.5,286047007.5,N
1651997575.4,286047007.4,N
1651997595.2,286047006.8,N
1651997615.0,286047007.3,N
1651997615.9,286047007.3,N
1651997635.8,286047006.5,N
1651997655.6,286047006.1,N
1651997675.5,286047011.9,Y
1651997695.3,286047005.6,P
1651997715.1,286047001.6,N
1651997735.9,286047001.4,N
1651997755.7,286046998.6,N
1651997775.6,286047002.7,N
1651997795.4,286047000.3,N
1651997815.2,286047003.6,N
1651997835.1,286047003.8,N
1651997836.0,286047003.8,N
1651997855.8,286047004.1,N
1651997875.6,286047003.8,N
1651997895.5,286046999.8,N
1651997915.3,286047000.7,N
1651997935.2,286047000.3,N
1651997955.9,286047002.7,N
1651997975.7,286047002.0,N
1651997995.6,286047002.7,N
1651998015.4,286047001.7,N
1651998035.2,286047004.2,N
1651998055.1,286047004.2,N
1651998056.0,286047004.2,N
1651998075.8,286047004.4,N
1651998095.7,286047003.2,N
1651998115.5,286047005.3,Y
1651998135.3,286047000.3,P
1651998155.2,286047000.4,N
1651998175.0,286047000.6,N
1651998175.9,286047000.6,N
1651998195.8,286047002.1,N
1651998215.6,286047000.8,N
1651998235.4,286046996.8,Y
1651998255.3,286046996.3,P
1651998275.1,286046994.8,N
1651998295.8,286046991.7,P
1651998315.7,286046994.8,N
1651998335.5,286046998.0,N
1651998355.4,286046993.7,N
1651998375.2,286046992.1,N
1651998395.0,286046990.4,Y
1651998395.9,286046990.4,P
1651998415.8,286046998.6,N
1651998435.6,286046999.0,N
1651998455.4,286046998.2,N
1651998475.3,286047002.1,N
1651998495.1,286046996.5,N
1651998515.9,286046999.9,N
1651998535.7,286047001.2,N
1651998555.5,286047000.1,N
1651998575.4,286046999.3,N
1651998595.2,286046998.6,N
1651998615.0,286046996.8,N
1651998615.9,286046996.8,N
1651998635.8,286046997.4,N
1651998655.6,286046998.7,N
1651998675.5,286046997.7,N
1651998695.3,286046998.9,N
1651998715.1,286046997.0,N
1651998735.9,286046995.5,N
1651998755.7,286046996.8,N
1651998775.6,286046997.8,N
1651998795.4,286046997.7,N
1651998815.2,286046998.8,N
1651998835.1,286047000.3,N
1651998836.0,286047000.3,N
1651998855.8,286046999.4,N
1651998875.6,286046998.3,N
1651998895.5,286047002.1,N
1651998915.3,286047001.7,N
1651998935.2,286047001.5,N
1651998955.9,286047001.6,N
1651998975.7,286047002.7,N
1651998995.6,286047000.4,N
1651999015.4,286047002.2,N
1651999035.2,286047002.4,N
1651999055.1,286047000.5,N
1651999056.0,286047000.5,N
1651999075.8,286047000.8,N
1651999095.7,286046997.0,N
1651999115.5,286046999.4,N
1651999135.3,286046998.8,N
1651999155.2,286046999.4,N
1651999175.0,286046998.7,N
1651999175.9,286046998.7,N
1651999195.7,286047000.8,N
1651999215.6,286047001.8,N
1651999235.4,286047001.8,N
1651999255.3,286047000.4,N
1651999275.1,286047000.7,N
1651999276.0,286047000.7,N
1651999295.8,286046999.3,N
1651999315.7,286046998.2,N
1651999335.5,286047001.8,N
1651999355.4,286047003.3,N
1651999375.2,286047003.5,N
1651999395.0,286047002.2,N
1651999395.9,286047002.2,N
1651999415.8,286047003.4,N
1651999435.6,286047002.6,N
1651999455.4,286047001.1,N
1651999475.3,286046998.2,N
1651999495.1,286046999.9,N
1651999515.9,286047002.6,N
1651999535.7,286047003.2,N
1651999555.5,286047008.2,Y
1651999575.4,286047005.3,P
1651999595.2,286047004.7,N
1651999615.0,286047003.8,N
1651999615.9,286047003.8,N
1651999635.8,286047001.7,N
1651999655.6,286047004.4,N
1651999675.5,286047004.1,N
1651999695.3,286047004.3,N
1651999715.1,286047000.1,N
1651999735.9,286046998.8,N
1651999755.7,286046998.8,N
1651999775.5,286046997.4,N
1651999795.4,286046997.1,N
1651999815.2,286047000.3,N
1651999835.1,286046997.0,N
1651999836.0,286046997.0,N
1651999855.8,286046998.7,N
1651999875.6,286047001.0,N
1651999895.5,286047001.1,N
1651999915.3,286046999.4,N
1651999935.1,286046999.3,N
1651999955.9,286046997.7,N
1651999975.7,286046999.4,N
1651999995.6,286046997.2,N
1652000015.4,286046999.1,N
1652000035.2,286046995.2,N
1652000055.1,286046993.6,N
1652000056.0,286046993.6,N
1652000075.8,286046991.7,N
1652000095.6,286046991.7,N
1652000115.5,286046994.5,N
1652000135.3,286046993.4,N
1652000155.2,286046995.9,N
1652000175.9,286046996.4,N
1652000195.7,286046993.6,N
1652000215.6,286046996.0,N
1652000235.4,286046993.5,N
1652000255.3,286046992.4,N
1652000275.1,286046993.6,N
1652000276.0,286046993.6,N
1652000295.8,286046995.6,N
1652000315.7,286046995.5,N
1652000335.5,286046996.0,N
1652000355.3,286046993.8,N
1652000375.2,286046997.1,N
1652000395.0,286046998.3,N
1652000395.9,286046998.3,N
